Showing default

TIMATION 1, 2847

Orbit data source: Space-Track

TIMATION 1, 2847 is a payload satellite owned by NRL (US) in LEO that was launched on Wed, 31 May 1967 UTC via a THOR SLV-2 AGENA D launch vehicle from the Air Force Western Test Range (AFWTR). Payload-class satellites include a variety of spacecraft equipped with specific instruments for various scientific and technological missions. These include communications satellites like Starlink; space stations such as the ISS; scientific satellites like the Hubble; Earth observation satellites from companies like Planet Labs, Umbra, and HawkEye 360; GPS; miniature CubeSats for education and research; and military/defense satellites.

Loading next visibility...
Identifier
2847, 1967-053E
Orbit
LEO
Country
Flag of USUS
Related business
Manufacturer
NRL
Mission
Spacecraft
Bus & Motor
TIMATION, Unknown motor
Mass
39 kg wet, 39 kg dry
Launch date (UTC)
1967-05-31 (59 years ago)
Launch vehicle
THOR SLV-2 AGENA D
Launch site
Air Force Western Test Range (AFWTR)
Object type
Payload
Rocket body
Debris
Shape & HBR
Unknown
Radar Cross Section
Medium (>0.1 m² and <1 m²)

Expand to show TLE details & history
Last TLE update: 4 hours ago

TLE from 4 hours ago
0 TIMATION 1
1 02847U 67053E   26037.59741310  .00000235  00000-0  18640-3 0  9992
2 02847  69.9653 130.0988 0009359 245.2291 114.7845 14.02926891995477
Epoch: 2026-02-06T14:20Z
TLE epoch observation values (Epoch: 2026-02-06T14:20:16.491Z)
Latitude
-0.00001°
Longitude
138.29708°
Altitude
888.85 km
Speed
7.407 km/s
True Right ascension
08h 40m 23s
True Declination
0° 00' 00"
Sunlit
Object was in full shadow at epoch
Visualization orbit readout
Latitude
Unknown
Longitude
Unknown
Altitude
Unknown
Speed
Unknown
Apparent Right ascension
Unknown
Apparent Declination
Unknown
Sunlit
N/A
Visualization observer readout
Local Sidereal Time
20:55:12
Azimuth
Unknown
Elevation
Unknown
Doppler factor
Unknown
Orbital elements
Apogee altitude
888.512 km
Perigee altitude
874.923 km
Semi-major axis
7,259.855 km
Eccentricity
0.00094
Inclination
69.9653°
RAAN
130.0988°
Arg. of periapsis
245.2291°
True anomaly
114.88182°
Mean anomaly
114.7845°
Eccentric anomaly
114.83316°
Mean motion
3.50874 °/min
Orbital period
102.6 mins
BSTAR
0.0001864
Loading maneuver chart data...
Computing Atmospheric mass density...
Loading historical data...
Loading historical data...
Loading historical data...
Loading historical data...
Loading historical data...
Loading historical data...
Loading historical data...

Documentation

Showing up to 5 results
|